Voltar ao catálogo

STARLINK-33910

AtivoComunicaçõesVLEO
NORAD 63916·PAYLOAD·🇺🇸 United States

Lançado May 10, 2025 de Cape Canaveral Space Force Station

Loading…

Próximas Passagens (próximas 24 horas)

TLE

AtualizadoSource: CelesTrak SupGP

Época: Sep 14, 2026, 21:19 UTC

1 63916C 25095AC  26257.88868056 -.00042819  00000+0 -15493-2 0  2573
2 63916  43.0027 187.3588 0001299 264.7578 234.6869 15.27634022    14

Acompanhe STARLINK-33910 em tempo real com AllMySat

Download on the App Store